TimeCDT,TemperatureF,Dew PointF,Humidity,Sea Level PressureIn,VisibilityMPH,Wind Direction,Wind SpeedMPH,Gust SpeedMPH,PrecipitationIn,Events,Conditions,WindDirDegrees,DateUTC
12:53 AM,60.1,60.1,100,29.93,2.0,ENE,3.5,-,N/A,,Clear,60,2013-03-31 05:53:00
1:06 AM,60.8,60.8,100,29.94,5.0,Calm,Calm,-,N/A,,Scattered Clouds,0,2013-03-31 06:06:00
1:53 AM,60.1,60.1,100,29.92,1.8,Calm,Calm,-,N/A,,Scattered Clouds,0,2013-03-31 06:53:00
2:02 AM,60.8,60.8,100,29.93,3.0,Calm,Calm,-,N/A,,Partly Cloudy,0,2013-03-31 07:02:00
2:53 AM,62.1,61.0,96,29.91,7.0,South,5.8,-,N/A,,Mostly Cloudy,190,2013-03-31 07:53:00
3:39 AM,62.6,60.8,94,29.97,7.0,North,19.6,25.3,N/A,Thunderstorm,Mostly Cloudy,350,2013-03-31 08:39:00
3:53 AM,60.1,55.9,86,29.94,9.0,NNE,16.1,26.5,N/A,Thunderstorm,Overcast,20,2013-03-31 08:53:00
4:30 AM,60.8,53.6,77,29.92,10.0,South,4.6,-,N/A,,Overcast,180,2013-03-31 09:30:00
4:43 AM,60.8,55.4,82,29.91,10.0,SSE,6.9,-,N/A,,Overcast,160,2013-03-31 09:43:00
4:53 AM,60.1,54.0,80,29.90,10.0,South,6.9,-,N/A,,Mostly Cloudy,170,2013-03-31 09:53:00
5:53 AM,62.1,57.0,84,29.88,10.0,South,8.1,-,N/A,,Partly Cloudy,180,2013-03-31 10:53:00
6:39 AM,62.6,59.0,88,29.88,10.0,South,9.2,-,N/A,,Mostly Cloudy,190,2013-03-31 11:39:00
6:53 AM,62.1,59.0,90,29.88,9.0,South,9.2,-,N/A,,Overcast,190,2013-03-31 11:53:00
7:26 AM,62.6,60.8,94,29.90,5.0,South,9.2,-,N/A,,Overcast,190,2013-03-31 12:26:00
7:53 AM,62.1,62.1,100,29.88,4.0,South,10.4,-,N/A,,Overcast,180,2013-03-31 12:53:00
8:53 AM,63.0,62.1,97,29.91,4.0,SSW,3.5,-,N/A,,Overcast,200,2013-03-31 13:53:00
9:21 AM,60.8,57.2,88,29.97,2.5,North,21.9,39.1,0.06,Rain,Heavy Rain,10,2013-03-31 14:21:00
9:26 AM,57.2,55.4,94,29.99,1.5,NNW,11.5,31.1,0.14,Rain,Heavy Rain,340,2013-03-31 14:26:00
9:41 AM,57.2,57.2,100,29.99,1.5,North,9.2,-,0.28,Rain,Heavy Rain,10,2013-03-31 14:41:00
9:53 AM,57.0,57.0,100,29.97,2.0,NNE,11.5,-,0.34,Rain,Rain,20,2013-03-31 14:53:00
10:38 AM,57.2,57.2,100,30.01,1.2,Calm,Calm,-,0.21,Rain,Heavy Rain,0,2013-03-31 15:38:00
10:53 AM,57.0,57.0,100,30.00,1.2,South,3.5,-,0.31,Rain,Heavy Rain,180,2013-03-31 15:53:00
11:02 AM,57.2,57.2,100,30.00,2.0,SSE,8.1,-,0.05,Rain,Heavy Rain,150,2013-03-31 16:02:00
11:19 AM,57.2,57.2,100,29.98,3.0,SSE,5.8,-,0.11,Rain,Rain,150,2013-03-31 16:19:00
11:53 AM,57.0,57.0,100,29.85,8.0,ESE,15.0,19.6,0.16,Rain,Light Rain,110,2013-03-31 16:53:00
12:37 PM,60.8,57.2,88,29.91,10.0,SSE,4.6,-,0.00,,Clear,150,2013-03-31 17:37:00
12:53 PM,62.1,59.0,90,29.92,10.0,Calm,Calm,-,0.00,,Clear,0,2013-03-31 17:53:00
1:22 PM,62.6,59.0,88,29.94,10.0,Calm,Calm,-,N/A,,Mostly Cloudy,0,2013-03-31 18:22:00
1:53 PM,64.9,60.1,84,29.93,10.0,SW,3.5,-,N/A,,Scattered Clouds,230,2013-03-31 18:53:00
2:53 PM,68.0,57.9,70,29.92,10.0,Variable,6.9,-,N/A,,Scattered Clouds,0,2013-03-31 19:53:00
3:53 PM,69.1,57.0,65,29.91,10.0,NNE,6.9,-,N/A,,Clear,30,2013-03-31 20:53:00
4:53 PM,70.0,57.0,63,29.90,10.0,NW,6.9,-,N/A,,Clear,320,2013-03-31 21:53:00
5:53 PM,70.0,55.0,59,29.89,10.0,NNE,4.6,-,N/A,,Clear,30,2013-03-31 22:53:00
6:53 PM,69.1,55.9,63,29.90,10.0,NNE,3.5,-,N/A,,Clear,20,2013-03-31 23:53:00
7:53 PM,61.0,57.0,87,29.92,10.0,Calm,Calm,-,N/A,,Partly Cloudy,0,2013-04-01 00:53:00
9:53 PM,61.0,55.9,83,29.95,10.0,ESE,4.6,-,N/A,,Scattered Clouds,120,2013-04-01 02:53:00
10:53 PM,59.0,55.9,90,29.96,10.0,ESE,3.5,-,N/A,,Clear,110,2013-04-01 03:53:00
11:53 PM,59.0,57.0,93,29.97,10.0,SE,4.6,-,N/A,,Partly Cloudy,130,2013-04-01 04:53:00